Regional Weather Roundup
Issued by NWS Portland, ME

Home | Current Version | Previous Version | Text Only | Print | Product List | Glossary On
Versions: 1 2 3 4 5 6 7 8 9 10 11 12 13 14 15 16 17 18 19 20 21 22 23 24 25 26 27 28 29 30 31 32 33 34 35 36 37 38 39 40 41 42 43 44 45 46 47 48 49 50
000
ASUS41 KGYX 030210
RWRGYX
WEATHER ROUNDUP FOR MAINE AND NEW HAMPSHIRE
NATIONAL WEATHER SERVICE GRAY ME
1000 PM EDT MON MAY 02 2016

MEZ002-005-006-010-012-015-018-020-021-024-026-027-029-030300-
MAINE

CITY           SKY/WX    TMP DP  RH WIND       PRES   REMARKS
PORTLAND       CLOUDY    44  42  93 N10       29.93R FOG
SANFORD        CLOUDY    45  39  81 NW7       29.94S
BAR HARBOR     LGT RAIN  42  41  96 NE9       29.88F FOG
WISCASSET      CLOUDY    45  43  93 NW3       29.92F FOG
ROCKLAND       LGT RAIN  43  42  97 NE12G17   29.88S
FRYEBURG       CLOUDY    43  42  97 CALM      29.95S
LEWISTONAUBURN CLOUDY    43  39  87 N7        29.93R
AUGUSTA        CLOUDY    41  40  96 N13       29.92S
WATERVILLE     LGT RAIN  41  40  96 N12       29.90S
BANGOR         LGT RAIN  44  41  89 N10       29.91F FOG
GREENVILLE       N/A     36  35  96 E5        29.91F
MILLINOCKET    LGT RAIN  39  37  92 VRB6      29.97F
HOULTON        LGT RAIN  40  37  89 NE5       29.97F
PRESQUE ISLE   LGT RAIN  41  39  93 NE3       30.00F
FRENCHVILLE    LGT RAIN  39  35  86 NE3       30.00F
CARIBOU        LGT RAIN  41  38  89 NE3       29.99F
$$

NHZ002-005-008-009-011-012-014-030300-
NEW HAMPSHIRE

CITY           SKY/WX    TMP DP  RH WIND       PRES   REMARKS
ROCHESTER      CLOUDY    44  41  89 NW6       29.94R
NASHUA         CLOUDY    46  45  96 NW5       29.96R
MANCHESTER     CLOUDY    47  43  86 N7        29.94R
CONCORD        CLOUDY    44  41  89 N5        29.97R
LACONIA        CLOUDY    43  39  87 CALM      29.96R
PLYMOUTH       CLOUDY    45  44  97 CALM      29.95R
BERLIN         CLOUDY    41  39  93 CALM      29.93R
WHITEFIELD     CLOUDY    42  39  89 NE3       29.93R
JAFFREY        CLOUDY    45  43  93 CALM      29.95R
KEENE          CLOUDY    46  45  93 CALM      29.96S
LEBANON        CLOUDY    46  44  93 CALM      29.95R
MT WASHINGTON  FRZ DRZL  27  27 100 W26         N/A  VSB 1/16WCI  11
$$

VTZ005-007-008-030300-
VERMONT

CITY           SKY/WX    TMP DP  RH WIND       PRES   REMARKS
ST JOHNSBURY     N/A     45  42  89 MISG      29.93R
MONTPELIER     CLOUDY    43  41  93 W8        29.98R
BURLINGTON     CLOUDY    46  43  89 NW5       29.97R
$$

MAZ007-012-024-CTZ003-RIZ002-NYZ038-NYZ072-030300-
SOUTHERN NEW ENGLAND AND NY

CITY           SKY/WX    TMP DP  RH WIND       PRES   REMARKS
BOSTON         CLOUDY    46  43  87 N9        29.96R
WORCESTER      CLOUDY    47  45  93 VRB3      29.95R
NANTUCKET      CLOUDY    54  50  86 NW8       29.91S
PROVIDENCE     MOCLDY    54  48  80 NW5       29.94S
HARTFORD       CLOUDY    49  47  93 N7        29.94R FOG
ALBANY         CLOUDY    51  47  86 CALM      29.95S
NEW YORK CITY  MOCLDY    58  50  75 W3        29.93R
$$

ANZ081-ANZ082-ANZ150-NHZ014-MEZ023>029-030300-
COASTAL MARINE OBSERVATIONS

STATION/POSITION TIME  TEMP    WIND        PRES    WAVE
                       AIR SEA DIR/SP/G            HT/PER
                 (UTC) (F)     (DEG/KT/KT) (MB)    (FT/S)
MOUNT DESERT ROC 0200   44      30/ 24/ 26 1009.9F
MATINICUS ROCK   0200   43      30/ 20/ 24 1010.2F
ISLE OF SHOALS   0200   45     320/ 11/ 12 1013.6R
CASHES LEDGE BUO 0150   44 44   20/ 14/ 17 1009.9R   6/ 9
GEORGES BANK BUO 0150   51 49              1011.4F   6/ 8
$$

.............KEY..............
   WCI - WIND CHILL
   TC  - TEMPERATURE IN CELSIUS
   VSB - VISIBILITY IN MILES
   HX  - HEAT INDEX
   FAIR- INDICATES FEW OR NO CLOUDS BELOW 12,000 FT, WITH NO
         SIGNIFICANT WEATHER AND/OR OBSTRUCTIONS TO VISIBILITY.






USA.gov is the U.S. government's official web portal to all federal, state and local government web resources and services.